Location: Ajisawe
(8.4333°N, 4.3833°E)
Time: 13:53:58
(UTC+00:00)

Courier 1B Rocket - Pass Details

Date: 02 May 2021
Orbit: 920 x 1202 km, 28.2° (Epoch: 07 May)

Event Time Altitude Azimuth Distance (km) Brightness Sun altitude
Rises 21:48:04 0° 289° (WNW) 3,661 8.5 -53.4°
Enters shadow 21:49:33 - 287° (WNW) 3,149 8.1 -53.7°
Reaches altitude 10° 21:50:43 10° 284° (WNW) 2,749 - -53.9°
Maximum altitude 21:57:11 51° 210° (SSW) 1,286 - -55.1°
Drops below altitude 10° 22:04:10 10° 136° (SE) 2,954 - -56.3°
Sets 22:07:07 0° 131° (SE) 3,955 - -56.8°
